This demonstration page uses our WeatherBlox Daily Observations layout. Learn more.

Left ArrowRight Arrow

39.29038, -76.61219

Hourly Observations for January 21, 2022

Temp ( °F °C ) Dew Point ( °F °C ) Humidity (%) Winds ( mph kmh ) Pressure ( in mb ) Visibility ( mi km ) Precip ( " mm )
12:54 am 00:54 Partly Cloudy 24 -4.4 5 -15 44 44 N 12 19 30.41 1030 10 16 0.00 0.00
1:54 am 01:54 Mostly Clear 23 -5 5 -15 46 46 N 8 13 30.42 1030 10 16 0.00 0.00
2:54 am 02:54 Mostly Cloudy 22 -5.6 4 -15.6 46 46 NNW 13 20 30.42 1030 10 16 0.00 0.00
3:54 am 03:54 Mostly Cloudy 21 -6.1 3 -16.1 45 45 N 10 17 30.43 1031 10 16 0.00 0.00
4:54 am 04:54 Mostly Cloudy 19 -7.2 3 -16.1 49 49 N 12 19 30.46 1031 10 16 0.00 0.00
5:54 am 05:54 Mostly Cloudy 18 -7.8 3 -16.1 52 52 N 10 17 30.48 1032 10 16 0.00 0.00
6:54 am 06:54 Mostly Cloudy 17 -8.3 3 -16.1 54 54 N 10 17 30.52 1033 10 16 0.00 0.00
7:54 am 07:54 Mostly Cloudy 17 -8.3 3 -16.1 54 54 N 12 19 30.53 1034 10 16 0.00 0.00
8:54 am 08:54 Mostly Cloudy 17 -8.3 3 -16.1 54 54 N 12 19 30.54 1034 10 16 0.00 0.00
9:54 am 09:54 Mostly Cloudy 18 -7.8 4 -15.6 54 54 N 10 17 30.57 1035 10 16 0.00 0.00
10:54 am 10:54 Mostly Cloudy 22 -5.6 4 -15.6 46 46 N 12 19 30.56 1035 10 16 0.00 0.00
11:54 am 11:54 Mostly Cloudy 24 -4.4 4 -15.6 42 42 NNE 8 13 30.54 1034 10 16 0.00 0.00
12:54 pm 12:54 Mostly Cloudy 25 -3.9 5 -15 42 42 NNW 9 15 30.51 1033 10 16 0.00 0.00
1:54 pm 13:54 Mostly Cloudy 25 -3.9 5 -15 42 42 NNE 8 13 30.49 1033 10 16 0.00 0.00
2:54 pm 14:54 Mostly Cloudy 25 -3.9 5 -15 42 42 N 6 9 30.49 1033 10 16 0.00 0.00
3:54 pm 15:54 Mostly Cloudy 25 -3.9 6 -14.4 44 44 NNE 8 13 30.50 1033 10 16 0.00 0.00
4:54 pm 16:54 Mostly Cloudy 24 -4.4 5 -15 44 44 N 9 15 30.51 1033 10 16 0.00 0.00
5:54 pm 17:54 Mostly Cloudy 24 -4.4 6 -14.4 46 46 N 8 13 30.52 1033 10 16 0.00 0.00
6:54 pm 18:54 Mostly Cloudy 24 -4.4 7 -13.9 48 48 N 6 9 30.52 1034 10 16 0.00 0.00
7:54 pm 19:54 Cloudy 24 -4.4 7 -13.9 48 48 N 6 9 30.52 1033 10 16 0.00 0.00
8:54 pm 20:54 Cloudy 24 -4.4 6 -14.4 46 46 N 5 7 30.50 1033 10 16 0.00 0.00
9:54 pm 21:54 Cloudy 24 -4.4 6 -14.4 46 46 NNE 5 7 30.50 1033 10 16 0.00 0.00
10:54 pm 22:54 Mostly Cloudy 24 -4.4 3 -16.1 40 40 NNE 7 11 30.49 1033 10 16 0.00 0.00
11:54 pm 23:54 Mostly Cloudy 24 -4.4 2 -16.7 38 38 NNE 7 11 30.48 1032 10 16 0.00 0.00

Powered by AerisWeather